GEESAT 6-01

导读

GEESAT 6-01是中国于2025年9月24日成功发射的国产卫星,属于GEESAT系列卫星的6组首发星,该系列已在吉利星座等项目中完成多星部署。GEESAT系列卫星多服务于航天科研、天地互联相关领域,GEESAT 6-01入轨后,将进一步提升星座覆盖能力,助力天地一体化网络构建,推动商业航天应用场景拓展,目前已在轨稳定运行超5个月。

Basic Information
目录编号:
65713
目录名称:
GEESAT 6-01
国际标识:
2025-214B
轨道中心:
EARTH
卫星名称:
GEESAT 6-01
卫星全名:
GEESAT 6-01
卫星状态:
在轨 (已飞行356 天)
发射日期:
2025-09-24 UTC
国别 :
中国 (CN)
星等 :
--
This satellite is enrolled in the Space Conjunction Data Service (SCDS) and the current flight risk assessment level is: No High Risk
Orbit Information
数据来源 国际轨道数据 AOE轨道数据
星历时间 2026-09-14T17:07:39+0800
1天前
查看轨道信息
2026-09-15T12:00:00+0800
18小时前
查看轨道信息
半长轴 6996.252km 6996.274km
偏心率 0.0011943 0.0012133
轨道倾角 49.985° 49.985°
近地点辐角 212.879° 216.120°
升交点赤经 255.278° 251.635°
平近点角 147.141° 26.690°
近地点 609.759km 609.648km
远地点 626.471km 626.626km
周期 97.064分钟 97.064分钟
每日圈数 14.835583 14.835514
Detailed Information
使用方式:
暂无
2D Orbit Map
3D Orbit Map
Orbit Altitude Analysis Chart
Orbit Inclination Analysis Chart
Orbit Comprehensive Analysis Chart
View Comprehensive Chart
Conjunction Data List
Event ID Objects TCA Miss Dist (km) Collision Risk Probability Collision Risk Index (CRI) Action
CDM_260909-141403-247306-571324
CZ-4 DEB (32473)
2026-09-09T
14:14:14+0000
1.316 km
极远距离
5.93951E-6 低风险 0.5
CDM_260917-194606-571306-858921
2026-09-17T
19:46:38+0000
2.785 km
极远距离
1.172698E-6 低风险 0.36
Miss Distance Evolution Trend with All Objects Subscribe to Flight Safety Assessment
Collision Probability Evolution Trend with All Objects Subscribe to Flight Safety Assessment